Regional Weather Roundup
Issued by NWS

Home | Current Version | Previous Version | Graphics & Text | Print | Product List | Glossary On
Versions: 1 2 3 4 5 6 7 8 9 10 11 12 13 14 15 16 17 18 19 20 21 22 23 24 25 26 27 28 29 30 31 32 33 34 35 36 37 38 39 40 41 42 43 44 45 46 47 48 49 50
000
ASUS45 KBOI 290310
RWRID

IDAHO REGIONAL WEATHER ROUNDUP
NATIONAL WEATHER SERVICE BOISE ID
900 PM MDT THU MAY 28 2015

NOTE: "FAIR" INDICATES FEW OR NO CLOUDS BELOW 12000 FEET
WITH NO SIGNIFICANT WEATHER AND/OR OBSTRUCTIONS TO VISIBILITY

IDZ012-014-290400-
SOUTHWEST IDAHO


CITY           SKY/WX    TMP DP  RH WIND       PRES   REMARKS
BOISE          CLEAR     74  41  30 W7        30.02S
CALDWELL       CLEAR     73  37  27 W5        30.02S
MOUNTAIN HOME  CLEAR     75  38  26 NW12      30.02R
$$

IDZ016-017-290400-
SOUTHCENTRAL IDAHO


CITY           SKY/WX    TMP DP  RH WIND       PRES   REMARKS
BURLEY         PTCLDY    60  45  57 S6        30.09R
JEROME         CLEAR     67  42  40 SE5       30.09R
TWIN FALLS     CLEAR     62  49  62 S3        30.07S
$$

IDZ019>023-290400-
SOUTHEAST IDAHO


CITY           SKY/WX    TMP DP  RH WIND       PRES   REMARKS
IDAHO FALLS    MOCLDY    56  48  74 NE5       30.18R
POCATELLO      MOCLDY    58  51  78 NW6       30.16R
REXBURG        PTCLDY    55  46  71 E3        30.18R
$$

IDZ006-010-011-018-031-032-290400-
CENTRAL IDAHO MOUNTAINS


CITY           SKY/WX    TMP DP  RH WIND       PRES   REMARKS
MCCALL         CLEAR     63  40  42 NW6       30.11R
HAILEY         PTCLDY    61  45  55 CALM      30.15R
STANLEY          N/A     52  38  58 CALM      30.19S
SALMON         PTCLDY    57  46  67 CALM      30.16R
CHALLIS        PTCLDY    58  43  57 N7        30.16R
$$

IDZ002-004-006-007-026-290400-
NORTHERN IDAHO


CITY           SKY/WX    TMP DP  RH WIND       PRES   REMARKS
LEWISTON       PTCLDY    77  51  40 NE10      30.01S
LOWELL           N/A     63  53  70 CALM      30.07R
COEUR D`ALENE  CLOUDY    63  52  67 CALM      30.13R
MULLAN PASS    CLOUDY    49  44  83 SE12G20   30.25R
$$



USA.gov is the U.S. government's official web portal to all federal, state and local government web resources and services.